SZ-21 MODULE

Last updated on Sat Sep 05 2026 00:02:09 GMT+0000 (Coordinated Universal Time)

1 66515U 25246C 26246.84813584 .00051847 00000+0 22445-3 0 9997 2 66515 41.4690 174.8200 0011120 229.2990 130.6892 15.83919313 46180
UTC large
Height (km)
Speed (km/s)
/
Latitude / Longitude
Inclination (degrees)
Orbital Period (minutes)
Azimuth
Elevation
Range (km)
Doppler Factor

Next 0 passes for location: London (51.5072 / 0.1276)

No passes found over London.
SZ-21 MODULE